| time (UTC) | temp C | wind direction | speed KPH | gust KPH | rain 1hr cm | rain 24hr cm | rain mn cm | humidity % | barometer mb |
| 20260504194538 | 12 | 343 | 11.3 | 22.5 | 0.00 | 0.00 | 0.00 | 39 | 1013.6 |
| 20260504193519 | 12 | 10 | 11.3 | 19.3 | 0.00 | 0.00 | 0.00 | 34 | 1013.4 |
| 20260504192519 | 12 | 357 | 11.3 | 16.1 | 0.00 | 0.00 | 0.00 | 33 | 1013.5 |
| 20260504191519 | 12 | 359 | 11.3 | 17.7 | 0.00 | 0.00 | 0.00 | 32 | 1013.6 |
| 20260504190520 | 13 | 292 | 12.9 | 17.7 | 0.00 | 0.00 | 0.00 | 31 | 1013.5 |
| 20260504185520 | 14 | 326 | 11.3 | 17.7 | 0.00 | 0.00 | 0.00 | 29 | 1013.5 |
| 20260504184517 | 14 | 324 | 14.5 | 25.7 | 0.00 | 0.00 | 0.00 | 29 | 1013.6 |
| 20260504183537 | 13 | 323 | 11.3 | 19.3 | 0.00 | 0.00 | 0.00 | 29 | 1013.8 |
| 20260504182520 | 14 | 302 | 14.5 | 24.1 | 0.00 | 0.00 | 0.00 | 29 | 1013.9 |
| 20260504181538 | 14 | 294 | 17.7 | 30.6 | 0.00 | 0.00 | 0.00 | 27 | 1014.0 |
| 20260504180518 | 13 | 304 | 12.9 | 24.1 | 0.00 | 0.00 | 0.00 | 28 | 1014.1 |
| 20260504175538 | 13 | 300 | 14.5 | 22.5 | 0.00 | 0.00 | 0.00 | 29 | 1014.1 |
| 20260504174518 | 13 | 320 | 14.5 | 24.1 | 0.00 | 0.00 | 0.00 | 30 | 1014.2 |
| 20260504173558 | 13 | 293 | 17.7 | 32.2 | 0.00 | 0.00 | 0.00 | 30 | 1014.2 |
| 20260504172522 | 13 | 327 | 14.5 | 20.9 | 0.00 | 0.00 | 0.00 | 30 | 1014.4 |
| 20260504171539 | 13 | 326 | 12.9 | 19.3 | 0.00 | 0.00 | 0.00 | 32 | 1014.5 |
| 20260504170539 | 12 | 311 | 12.9 | 20.9 | 0.00 | 0.00 | 0.00 | 33 | 1014.5 |
| 20260504150521 | 10 | 349 | 9.7 | 16.1 | 0.00 | 0.00 | 0.00 | 43 | 1015.9 |
| 20260504140519 | 10 | 358 | 9.7 | 16.1 | 0.00 | 0.00 | 0.00 | 48 | 1015.6 |
| 20260504130517 | 6 | 260 | 6.4 | 11.3 | 0.00 | 0.00 | 0.00 | 64 | 1015.3 |
| 20260504110520 | 6 | 139 | 11.3 | 17.7 | 0.00 | 0.00 | 0.00 | 62 | 1015.3 |
| 20260504100517 | 6 | 273 | 25.7 | 38.6 | 0.00 | 0.00 | 0.00 | 60 | 1015.7 |
| 20260504081528 | 1 | 137 | 3.2 | 6.4 | 0.00 | 0.00 | 0.00 | 71 | 1015.9 |
| 20260504080522 | 2 | 193 | 6.4 | 9.7 | 0.00 | 0.00 | 0.00 | 65 | 1016.0 |
| 20260504050532 | 8 | 109 | 3.2 | 4.8 | 0.00 | 0.00 | 0.00 | 48 | 1016.8 |
| 20260504045532 | 8 | 181 | 4.8 | 6.4 | 0.00 | 0.00 | 0.00 | 47 | 1016.9 |
| 20260504044532 | 8 | 191 | 3.2 | 4.8 | 0.00 | 0.00 | 0.00 | 44 | 1017.0 |
| 20260504043532 | 8 | 325 | 1.6 | 4.8 | 0.00 | 0.00 | 0.00 | 40 | 1017.0 |
| 20260504042517 | 8 | 103 | 3.2 | 4.8 | 0.00 | 0.00 | 0.00 | 51 | 1017.0 |
| 20260504041518 | 8 | 129 | 4.8 | 6.4 | 0.00 | 0.00 | 0.00 | 47 | 1017.0 |
| 20260504040538 | 8 | 150 | 6.4 | 6.4 | 0.00 | 0.00 | 0.00 | 49 | 1017.0 |
| 20260504035518 | 9 | 128 | 3.2 | 3.2 | 0.00 | 0.00 | 0.00 | 42 | 1017.0 |
| 20260504034539 | 9 | 103 | 3.2 | 4.8 | 0.00 | 0.00 | 0.00 | 44 | 1017.0 |
| 20260504033559 | 9 | 156 | 3.2 | 4.8 | 0.00 | 0.00 | 0.00 | 43 | 1017.0 |
| 20260504032518 | 10 | 169 | 3.2 | 4.8 | 0.00 | 0.00 | 0.00 | 40 | 1016.9 |
| 20260504031519 | 10 | 64 | 3.2 | 4.8 | 0.00 | 0.00 | 0.00 | 39 | 1016.9 |
| 20260504030539 | 10 | 22 | 1.6 | 3.2 | 0.00 | 0.00 | 0.00 | 37 | 1016.7 |
| 20260504025522 | 10 | 62 | 4.8 | 8.0 | 0.00 | 0.00 | 0.00 | 40 | 1016.6 |
| 20260504024519 | 10 | 285 | 3.2 | 4.8 | 0.00 | 0.00 | 0.00 | 39 | 1016.5 |
| 20260504023520 | 10 | 310 | 1.6 | 4.8 | 0.00 | 0.00 | 0.00 | 37 | 1016.4 |
| 20260504022520 | 11 | 283 | 1.6 | 4.8 | 0.00 | 0.00 | 0.00 | 35 | 1016.3 |
| 20260504021517 | 11 | 259 | 6.4 | 9.7 | 0.00 | 0.00 | 0.00 | 33 | 1016.3 |
| 20260504020517 | 11 | 268 | 8.0 | 14.5 | 0.00 | 0.00 | 0.00 | 32 | 1016.2 |
| 20260504015523 | 12 | 243 | 6.4 | 12.9 | 0.00 | 0.00 | 0.00 | 31 | 1016.1 |
| 20260504014521 | 12 | 234 | 11.3 | 16.1 | 0.00 | 0.00 | 0.00 | 28 | 1016.1 |
| 20260504013518 | 12 | 269 | 12.9 | 20.9 | 0.00 | 0.00 | 0.00 | 28 | 1016.1 |
| 20260504012518 | 13 | 322 | 9.7 | 14.5 | 0.00 | 0.00 | 0.00 | 28 | 1016.0 |
| 20260504011518 | 13 | 307 | 12.9 | 17.7 | 0.00 | 0.00 | 0.00 | 28 | 1015.8 |
| 20260504010518 | 13 | 301 | 9.7 | 17.7 | 0.00 | 0.00 | 0.00 | 26 | 1015.8 |
| 20260504005519 | 13 | 323 | 6.4 | 14.5 | 0.00 | 0.00 | 0.00 | 23 | 1015.7 |
| 20260504004519 | 14 | 316 | 6.4 | 11.3 | 0.00 | 0.00 | 0.00 | 23 | 1015.7 |
| 20260504003519 | 14 | 299 | 11.3 | 14.5 | 0.00 | 0.00 | 0.00 | 23 | 1015.7 |
| 20260504002520 | 14 | 300 | 6.4 | 9.7 | 0.00 | 0.00 | 0.00 | 23 | 1015.7 |
| 20260504001519 | 14 | 306 | 8.0 | 14.5 | 0.00 | 0.00 | 0.00 | 23 | 1015.8 |
| 20260504000600 | 14 | 300 | 12.9 | 19.3 | 0.00 | 0.00 | 0.00 | 23 | 1015.8 |
| 20260503235520 | 15 | 289 | 11.3 | 17.7 | 0.00 | 0.00 | 0.00 | 22 | 1015.8 |
| 20260503234523 | 15 | 309 | 3.2 | 6.4 | 0.00 | 0.00 | 0.00 | 21 | 1015.8 |
| 20260503233520 | 15 | 300 | 9.7 | 14.5 | 0.00 | 0.00 | 0.00 | 21 | 1015.9 |
| 20260503232541 | 15 | 288 | 14.5 | 24.1 | 0.00 | 0.00 | 0.00 | 21 | 1015.8 |
| 20260503231520 | 15 | 281 | 6.4 | 12.9 | 0.00 | 0.00 | 0.00 | 21 | 1015.9 |
| 20260503230520 | 16 | 286 | 11.3 | 24.1 | 0.00 | 0.00 | 0.00 | 20 | 1015.9 |
| 20260503225521 | 15 | 9 | 6.4 | 9.7 | 0.00 | 0.00 | 0.00 | 20 | 1016.1 |
| 20260503224521 | 15 | 10 | 6.4 | 12.9 | 0.00 | 0.00 | 0.00 | 20 | 1016.1 |
| 20260503223520 | 15 | 22 | 6.4 | 12.9 | 0.00 | 0.00 | 0.00 | 20 | 1016.2 |
| 20260503222521 | 15 | 332 | 4.8 | 9.7 | 0.00 | 0.00 | 0.00 | 21 | 1016.3 |
| 20260503221521 | 15 | 2 | 6.4 | 14.5 | 0.00 | 0.00 | 0.00 | 20 | 1016.4 |
| 20260503220542 | 15 | 49 | 8.0 | 14.5 | 0.00 | 0.00 | 0.00 | 19 | 1016.6 |
| 20260503215522 | 15 | 1 | 6.4 | 12.9 | 0.00 | 0.00 | 0.00 | 19 | 1016.7 |
| 20260503214522 | 15 | 324 | 6.4 | 16.1 | 0.00 | 0.00 | 0.00 | 20 | 1016.8 |
| 20260503213539 | 15 | 311 | 8.0 | 19.3 | 0.00 | 0.00 | 0.00 | 20 | 1017.0 |
| 20260503212522 | 15 | 18 | 9.7 | 16.1 | 0.00 | 0.00 | 0.00 | 18 | 1017.1 |
| 20260503211519 | 16 | 295 | 8.0 | 17.7 | 0.00 | 0.00 | 0.00 | 17 | 1017.3 |
| 20260503210516 | 16 | 20 | 11.3 | 19.3 | 0.00 | 0.00 | 0.00 | 17 | 1017.5 |
| 20260503205522 | 16 | 344 | 6.4 | 12.9 | 0.00 | 0.00 | 0.00 | 18 | 1017.7 |
| 20260503204523 | 15 | 11 | 3.2 | 11.3 | 0.00 | 0.00 | 0.00 | 18 | 1017.9 |
| 20260503203519 | 16 | 357 | 12.9 | 22.5 | 0.00 | 0.00 | 0.00 | 18 | 1018.1 |
| 20260503202523 | 15 | 0 | 9.7 | 16.1 | 0.00 | 0.00 | 0.00 | 19 | 1018.3 |
| 20260503201523 | 15 | 342 | 6.4 | 14.5 | 0.00 | 0.00 | 0.00 | 20 | 1018.5 |
| 20260503200517 | 15 | 9 | 11.3 | 17.7 | 0.00 | 0.00 | 0.00 | 21 | 1018.6 |
| 20260503195517 | 15 | 314 | 9.7 | 20.9 | 0.00 | 0.00 | 0.00 | 20 | 1018.8 |